This is the latest recevied weather packets stored in our database for station/object KD7JB. If no packets are shown the sender has not sent any weather packets the latest 10 day(s).
| Time | Temp. | Humidity | Pressure | Rain* | Wind** | Luminosity | Snow |
|---|---|---|---|---|---|---|---|
| 1777969640 | 15° C | 47% | 1173.3 hPa | 0 mm | - | 0 W/m² | - |
| 1777969338 | 15° C | 46% | 1173.4 hPa | 0 mm | - | 0 W/m² | - |
| 1777969033 | 15° C | 47% | 1173.5 hPa | 0 mm | - | 0 W/m² | - |
| 1777968731 | 15° C | 47% | 1173.5 hPa | 0 mm | - | 0 W/m² | - |
| 1777968428 | 15.56° C | 47% | 1173.1 hPa | 0 mm | - | 0 W/m² | - |
| 1777968124 | 15.56° C | 47% | 1173.1 hPa | 0 mm | - | 0 W/m² | - |
| 1777967820 | 15.56° C | 47% | 1173.4 hPa | 0 mm | - | 0 W/m² | - |
| 1777967517 | 15° C | 48% | 1173.1 hPa | 0 mm | - | 0 W/m² | - |
| 1777967214 | 15° C | 48% | 1173.3 hPa | 0 mm | - | 0 W/m² | - |
| 1777966609 | 15.56° C | 46% | 1173.1 hPa | 0 mm | - | 0 W/m² | - |
| 1777966307 | 15° C | 48% | 1173.3 hPa | 0 mm | - | 0 W/m² | - |
| 1777966002 | 15.56° C | 47% | 1173 hPa | 0 mm | - | 0 W/m² | - |
| 1777965699 | 15.56° C | 47% | 1172.9 hPa | 0 mm | - | 0 W/m² | - |
| 1777965394 | 15.56° C | 47% | 1172.9 hPa | 0 mm | - | 0 W/m² | - |
| 1777965092 | 16.11° C | 47% | 1172.7 hPa | 0 mm | - | 0 W/m² | - |
| 1777964789 | 16.11° C | 47% | 1172.7 hPa | 0 mm | - | 0 W/m² | - |
| 1777964485 | 16.11° C | 47% | 1172.8 hPa | 0 mm | - | 0 W/m² | - |
| 1777964181 | 16.11° C | 48% | 1172.9 hPa | 0 mm | - | 0 W/m² | - |
| 1777963878 | 16.11° C | 46% | 1172.9 hPa | 0 mm | - | 0 W/m² | - |
| 1777962970 | 16.11° C | 45% | 1173 hPa | 0 mm | - | 0 W/m² | - |
| 1777962666 | 16.11° C | 45% | 1172.9 hPa | 0 mm | - | 0 W/m² | - |
| 1777962363 | 16.11° C | 48% | 1172.7 hPa | 0 mm | - | 0 W/m² | - |
| 1777962060 | 16.11° C | 48% | 1172.7 hPa | 0 mm | - | 0 W/m² | - |
| 1777961757 | 16.11° C | 49% | 1172.7 hPa | 0 mm | - | 0 W/m² | - |
| 1777961455 | 16.11° C | 50% | 1172.6 hPa | 0 mm | - | 0 W/m² | - |
* Rain latest hour (hover to see other rain measurements)
** Current wind speed in m/s (hover to see current wind gust speed)